Flag for U.S.A. Weather past 2 weeks in El Paso, Texas, U.S.A.

Now
74 °F

Passing clouds.


Feels Like: 77 °F
Forecast: 65 / 86 °F
Wind: 6 mph from South

Location: El Paso International Airport

Current Time: Sep 30, 2014 at 12:54:51 AM

Latest Report: Sep 29, 2014 at 11:51 PM


Visibility: 10 mi

Pressure: 29.72 "Hg

Humidity: 56%

Dew point: 57 °F

Location of El PasoLocation

Historic Weather in El Paso — Graph

°F

El Paso temperature yesterday

Maximum temperature yesterday: 90 °F (at 3:51 PM)
Minimum temperature yesterday: 67 °F (at 4:51 AM)
Average temperature yesterday: 77 °F

Past Weeks' High & Low Weather Summary

 TemperatureHumidityPressure
High90 °F (Sep 29, 3:51 PM)97% (Sep 17, 8:51 PM)30.19 "Hg (Sep 17, 8:51 PM)
Low60 °F (Sep 27, 4:51 AM)26% (Sep 29, 3:51 PM)29.67 "Hg (Sep 29, 5:51 PM)
Average73 °F66%29.90 "Hg
* Reported Sep 14 10:51 PM — Sep 29 10:51 PM, El Paso, Weather by CustomWeather, © 2014

Note: Actual official high and low records may vary slightly from our data, if they occured in-between our weather recording intervals... More about our weather records

Advertising

El Paso weather history for previous 24 hours

 ConditionsComfort  
Time TempWeatherWind HumidityBarometerVisibility
10:51 PM
Sep 29
77 °FPassing clouds.7 mph50%29.72 "Hg10 mi
9:51 PM78 °FPassing clouds.8 mph45%29.71 "Hg10 mi
8:51 PM83 °FPassing clouds.7 mph37%29.70 "Hg10 mi
7:51 PM84 °FPassing clouds.7 mph35%29.68 "Hg10 mi
6:51 PM85 °FScattered clouds.12 mph31%29.67 "Hg10 mi
5:51 PM88 °FScattered clouds.8 mph27%29.67 "Hg10 mi
4:51 PM88 °FScattered clouds.16 mph28%29.67 "Hg10 mi
3:51 PM90 °FScattered clouds.14 mph26%29.68 "Hg10 mi
2:51 PM86 °FScattered clouds.12 mph33%29.72 "Hg10 mi
1:51 PM84 °FScattered clouds.9 mph41%29.74 "Hg10 mi
12:51 PM83 °FPassing clouds.8 mph44%29.78 "Hg10 mi
11:51 AM80 °FPassing clouds.8 mph47%29.81 "Hg10 mi
10:51 AM77 °FScattered clouds.12 mph52%29.83 "Hg10 mi
9:51 AM74 °FScattered clouds.10 mph57%29.86 "Hg10 mi
8:51 AM70 °FScattered clouds.5 mph68%29.86 "Hg10 mi
7:51 AM69 °FPassing clouds.6 mph68%29.85 "Hg10 mi
6:51 AM68 °FPassing clouds.No wind70%29.83 "Hg10 mi
5:51 AM68 °FPassing clouds.No wind70%29.82 "Hg10 mi
4:51 AM67 °FPassing clouds.5 mph73%29.82 "Hg10 mi
3:51 AM68 °FPassing clouds.3 mph70%29.81 "Hg10 mi
2:51 AM69 °FPassing clouds.3 mph68%29.83 "Hg10 mi
1:51 AM71 °FPassing clouds.6 mph63%29.83 "Hg10 mi
12:51 AM71 °FPassing clouds.3 mph63%29.83 "Hg10 mi
Weather by CustomWeather, © 2014

See weather overviewHow to use our weather pages